Location: Domachevo
(51.7500°N, 23.6000°E)
Time: 03:39:07
(UTC+02:00)

Genesis I - Visible Passes

Search period start: 24 November 2017 00:00
Search period end: 04 December 2017 00:00
Orbit: 492 x 537 km, 64.5° (Epoch: 23 November)

Date Brightness Start Highest point End Pass type
(mag) Time Alt. Az. Time Alt. Az. Time Alt. Az.
24 Nov 5.0 05:57:55 10° S 06:01:28 34° ESE 06:05:05 10° ENE visible
25 Nov 4.9 05:41:48 10° S 05:45:21 34° ESE 05:48:59 10° ENE visible
25 Nov 3.7 07:19:15 10° WSW 07:22:59 40° NW 07:26:48 10° NNE visible
26 Nov 4.8 05:26:33 15° S 05:29:15 35° ESE 05:32:53 10° ENE visible
26 Nov 3.7 07:03:09 10° WSW 07:06:53 40° NW 07:10:41 10° NNE visible
27 Nov 4.7 05:12:14 31° SSE 05:13:08 35° ESE 05:16:47 10° NE visible
27 Nov 3.7 06:47:17 11° WSW 06:50:47 39° NW 06:54:35 10° NNE visible
28 Nov 4.8 04:57:34 34° ESE 04:57:34 34° ESE 05:00:41 10° NE visible
28 Nov 3.7 06:32:35 22° W 06:34:40 39° NW 06:38:28 10° NNE visible
29 Nov 5.5 04:42:39 24° ENE 04:42:39 24° ENE 04:44:35 10° NE visible
29 Nov 3.8 06:17:38 33° WNW 06:18:34 38° NW 06:22:21 10° NNE visible
30 Nov 6.1 04:27:32 16° ENE 04:27:32 16° ENE 04:28:28 10° NE visible
30 Nov 3.8 06:02:31 38° NW 06:02:31 38° NW 06:06:14 10° NNE visible
01 Dec 6.5 04:12:18 10° NE 04:12:18 10° NE 04:12:21 10° NE visible
01 Dec 4.3 05:47:17 33° N 05:47:17 33° N 05:50:07 10° NNE visible
01 Dec 5.1 07:22:34 10° NW 07:25:02 16° NNW 07:27:31 10° NNE visible
02 Dec 4.9 05:31:56 25° NNE 05:31:56 25° NNE 05:34:00 10° NNE visible
02 Dec 5.2 07:06:55 11° NW 07:08:55 15° NNW 07:11:24 10° NNE visible
03 Dec 5.4 05:16:31 19° NNE 05:16:31 19° NNE 05:17:52 10° NNE visible
03 Dec 5.1 06:51:29 14° NW 06:52:49 15° NNW 06:55:17 10° NNE visible
